Time,TemperatureF,DewpointF,PressureIn,WindDirection,WindDirectionDegrees,WindSpeedMPH,WindSpeedGustMPH,Humidity,HourlyPrecipIn,Conditions,Clouds,dailyrainin,SoftwareType,DateUTC
2013-07-22 00:00:00,69.6,69.6,29.64,SE,135,0.0,0.0,100,0.00,,,0.00,VWS V14.01,2013-07-22 05:00:00,
2013-07-22 00:30:00,70.3,70.3,29.65,SE,135,2.0,10.0,100,0.00,,,0.00,VWS V14.01,2013-07-22 05:30:00,
2013-07-22 01:00:00,70.6,70.6,29.64,SE,135,1.0,7.0,100,0.00,,,0.00,VWS V14.01,2013-07-22 06:00:00,
2013-07-22 01:30:00,71.1,71.1,29.63,SE,135,0.0,6.0,100,0.00,,,0.00,VWS V14.01,2013-07-22 06:30:00,
2013-07-22 02:00:00,72.1,72.1,29.61,SE,135,4.0,11.0,100,0.00,,,0.00,VWS V14.01,2013-07-22 07:00:00,
2013-07-22 02:30:00,72.9,72.9,29.60,SE,135,3.0,13.0,100,0.00,,,0.00,VWS V14.01,2013-07-22 07:30:00,
2013-07-22 03:00:00,73.4,73.4,29.58,SE,135,3.0,10.0,100,0.00,,,0.00,VWS V14.01,2013-07-22 08:00:00,
2013-07-22 03:30:00,73.8,73.8,29.57,SE,135,1.0,7.0,100,0.00,,,0.00,VWS V14.01,2013-07-22 08:30:00,
2013-07-22 04:00:00,74.0,74.0,29.57,SSE,158,1.0,8.0,100,0.00,,,0.00,VWS V14.01,2013-07-22 09:00:00,
2013-07-22 04:30:00,73.9,73.9,29.57,SSE,158,0.0,0.0,100,0.00,,,0.00,VWS V14.01,2013-07-22 09:30:00,
2013-07-22 05:00:00,73.9,73.9,29.57,SSE,158,0.0,0.0,100,0.00,,,0.00,VWS V14.01,2013-07-22 10:00:00,
2013-07-22 05:30:00,74.1,74.1,29.55,SSE,158,0.0,0.0,100,0.00,,,0.00,VWS V14.01,2013-07-22 10:30:00,
2013-07-22 06:00:00,74.3,74.3,29.55,SSE,158,1.0,8.0,100,0.00,,,0.00,VWS V14.01,2013-07-22 11:00:00,
2013-07-22 06:30:00,75.0,75.0,29.55,SSE,158,1.0,8.0,100,0.00,,,0.00,VWS V14.01,2013-07-22 11:30:00,
2013-07-22 07:00:00,75.7,75.7,29.52,SSE,158,1.0,6.0,100,0.00,,,0.00,VWS V14.01,2013-07-22 12:00:00,
2013-07-22 07:30:00,76.8,76.8,29.52,SSE,158,0.0,5.0,100,0.00,,,0.00,VWS V14.01,2013-07-22 12:30:00,
2013-07-22 08:00:00,78.8,78.8,29.51,SSE,158,1.0,7.0,100,0.00,,,0.00,VWS V14.01,2013-07-22 13:00:00,
2013-07-22 08:30:00,80.2,80.2,29.50,South,180,2.0,7.0,100,0.00,,,0.00,VWS V14.01,2013-07-22 13:30:00,
2013-07-22 09:00:00,81.1,81.1,29.50,SSW,202,4.0,13.0,100,0.00,,,0.00,VWS V14.01,2013-07-22 14:00:00,
2013-07-22 09:30:00,81.8,81.8,29.50,SSW,202,5.0,12.0,100,0.00,,,0.00,VWS V14.01,2013-07-22 14:30:00,
2013-07-22 10:00:00,82.7,82.7,29.50,SSW,202,4.0,12.0,100,0.00,,,0.00,VWS V14.01,2013-07-22 15:00:00,
2013-07-22 10:30:00,83.1,83.1,29.50,SSW,202,4.0,12.0,100,0.00,,,0.00,VWS V14.01,2013-07-22 15:30:00,
2013-07-22 11:00:00,84.1,84.1,29.49,SW,225,5.0,12.0,100,0.00,,,0.00,VWS V14.01,2013-07-22 16:00:00,
2013-07-22 11:30:00,84.9,84.9,29.49,SW,225,4.0,11.0,100,0.00,,,0.00,VWS V14.01,2013-07-22 16:30:00,
2013-07-22 12:00:00,84.1,84.1,29.49,SW,225,3.0,9.0,100,0.00,,,0.00,VWS V14.01,2013-07-22 17:00:00,
2013-07-22 12:30:00,86.0,83.4,29.49,SW,225,2.0,11.0,92,0.00,,,0.00,VWS V14.01,2013-07-22 17:30:00,
2013-07-22 13:00:00,86.8,77.1,29.49,SW,225,4.0,13.0,73,0.00,,,0.00,VWS V14.01,2013-07-22 18:00:00,
2013-07-22 13:30:00,87.9,74.7,29.49,West,270,5.0,17.0,65,0.00,,,0.00,VWS V14.01,2013-07-22 18:30:00,
2013-07-22 14:00:00,87.4,72.3,29.50,NW,315,7.0,20.0,61,0.00,,,0.00,VWS V14.01,2013-07-22 19:00:00,
2013-07-22 14:30:00,87.0,71.4,29.50,NW,315,6.0,17.0,60,0.00,,,0.00,VWS V14.01,2013-07-22 19:30:00,
2013-07-22 15:00:00,87.4,72.3,29.50,NW,315,7.0,20.0,61,0.00,,,0.00,VWS V14.01,2013-07-22 20:00:00,
2013-07-22 15:07:00,83.8,68.9,29.53,NW,320,6.0,7.0,61,0.00,,,0.00,VWS V14.01,2013-07-22 20:07:00,
2013-07-22 15:09:00,83.8,68.9,29.53,NW,320,10.0,10.0,61,0.00,,,0.00,VWS V14.01,2013-07-22 20:09:00,
2013-07-22 15:17:00,83.0,65.2,29.53,NW,310,9.0,9.0,55,0.00,,,0.00,VWS V14.01,2013-07-22 20:17:00,
2013-07-22 15:19:00,82.8,65.0,29.53,NW,309,5.0,9.0,55,0.00,,,0.00,VWS V14.01,2013-07-22 20:19:00,
2013-07-22 15:21:00,83.0,65.2,29.53,NW,309,7.0,9.0,55,0.00,,,0.00,VWS V14.01,2013-07-22 20:21:00,
2013-07-22 15:23:00,83.2,65.4,29.53,NW,309,5.0,9.0,55,0.00,,,0.00,VWS V14.01,2013-07-22 20:23:00,
2013-07-22 15:25:00,83.2,65.4,29.53,NW,309,5.0,9.0,55,0.00,,,0.00,VWS V14.01,2013-07-22 20:25:00,
2013-07-22 15:30:00,87.0,71.4,29.50,NW,315,6.0,17.0,60,0.00,,,0.00,VWS V14.01,2013-07-22 20:30:00,
2013-07-22 16:19:00,83.2,65.4,29.53,NW,310,10.0,10.0,55,0.00,,,0.00,VWS V14.01,2013-07-22 21:19:00,
2013-07-22 16:25:00,82.8,65.0,29.53,NW,310,7.0,10.0,55,0.00,,,0.00,VWS V14.01,2013-07-22 21:25:00,
2013-07-22 16:30:00,83.2,65.9,29.54,NW,315,7.0,21.0,56,0.00,,,0.00,VWS V14.01,2013-07-22 21:30:00,
2013-07-22 16:31:00,82.4,64.6,29.54,NW,313,12.0,14.0,55,0.00,,,0.00,VWS V14.01,2013-07-22 21:31:00,
2013-07-22 16:37:00,82.4,65.1,29.54,NW,310,4.0,12.0,56,0.00,,,0.00,VWS V14.01,2013-07-22 21:37:00,
2013-07-22 16:43:00,82.0,66.8,29.54,NW,309,11.0,12.0,60,0.00,,,0.00,VWS V14.01,2013-07-22 21:43:00,
2013-07-22 16:49:00,81.8,66.6,29.53,NW,313,6.0,13.0,60,0.00,,,0.00,VWS V14.01,2013-07-22 21:49:00,
2013-07-22 16:56:00,81.6,66.4,29.53,NW,323,9.0,13.0,60,0.00,,,0.00,VWS V14.01,2013-07-22 21:56:00,
2013-07-22 17:00:00,82.0,66.8,29.53,NW,315,8.0,17.0,60,0.00,,,0.00,VWS V14.01,2013-07-22 22:00:00,
2013-07-22 17:02:00,81.2,66.0,29.53,NW,320,8.0,11.0,60,0.00,,,0.00,VWS V14.01,2013-07-22 22:02:00,
2013-07-22 17:08:00,80.1,66.8,29.53,NW,323,7.0,11.0,64,0.00,,,0.00,VWS V14.01,2013-07-22 22:08:00,
2013-07-22 17:14:00,80.1,66.8,29.53,NW,323,7.0,11.0,64,0.00,,,0.00,VWS V14.01,2013-07-22 22:14:00,
2013-07-22 17:21:00,79.0,66.2,29.54,NNW,327,10.0,17.0,65,0.00,,,0.00,VWS V14.01,2013-07-22 22:21:00,
2013-07-22 17:27:00,78.6,65.4,29.54,NW,326,10.0,25.0,64,0.00,,,0.00,VWS V14.01,2013-07-22 22:27:00,
2013-07-22 17:30:00,79.4,65.7,29.55,NNW,338,10.0,25.0,63,0.00,,,0.00,VWS V14.01,2013-07-22 22:30:00,
2013-07-22 17:33:00,78.5,65.8,29.55,NNW,330,12.0,12.0,65,0.00,,,0.00,VWS V14.01,2013-07-22 22:33:00,
2013-07-22 17:39:00,78.6,65.4,29.55,NNW,340,11.0,14.0,64,0.00,,,0.00,VWS V14.01,2013-07-22 22:39:00,
2013-07-22 17:45:00,78.1,64.9,29.55,NNW,338,19.0,19.0,64,0.00,,,0.00,VWS V14.01,2013-07-22 22:45:00,
2013-07-22 17:51:00,77.9,63.4,29.55,NNW,341,10.0,19.0,61,0.00,,,0.00,VWS V14.01,2013-07-22 22:51:00,
2013-07-22 17:58:00,77.4,63.4,29.55,NNW,348,12.0,21.0,62,0.00,,,0.00,VWS V14.01,2013-07-22 22:58:00,
2013-07-22 18:00:00,78.1,64.9,29.56,NNW,338,11.0,22.0,64,0.00,,,0.00,VWS V14.01,2013-07-22 23:00:00,
2013-07-22 18:04:00,77.7,64.1,29.56,NW,314,12.0,14.0,63,0.00,,,0.00,VWS V14.01,2013-07-22 23:04:00,
2013-07-22 18:10:00,76.8,62.3,29.56,NW,317,16.0,22.0,61,0.00,,,0.00,VWS V14.01,2013-07-22 23:10:00,
2013-07-22 18:16:00,76.1,63.0,29.57,NNW,334,17.0,22.0,64,0.00,,,0.00,VWS V14.01,2013-07-22 23:16:00,
2013-07-22 18:21:00,75.8,61.9,29.57,NNW,344,18.0,22.0,62,0.00,,,0.00,VWS V14.01,2013-07-22 23:21:00,
2013-07-22 18:28:00,74.9,61.9,29.57,NNW,348,11.0,22.0,64,0.00,,,0.00,VWS V14.01,2013-07-22 23:28:00,
2013-07-22 18:30:00,76.1,63.9,29.58,NNW,338,13.0,24.0,66,0.00,,,0.00,VWS V14.01,2013-07-22 23:30:00,
2013-07-22 18:34:00,75.1,63.0,29.58,NNW,346,10.0,14.0,66,0.00,,,0.00,VWS V14.01,2013-07-22 23:34:00,
2013-07-22 18:40:00,74.4,61.4,29.58,NW,310,8.0,19.0,64,0.00,,,0.00,VWS V14.01,2013-07-22 23:40:00,
2013-07-22 18:47:00,74.0,60.2,29.59,North,354,16.0,19.0,62,0.00,,,0.00,VWS V14.01,2013-07-22 23:47:00,
2013-07-22 18:54:00,73.7,61.2,29.59,NNW,344,6.0,19.0,65,0.00,,,0.00,VWS V14.01,2013-07-22 23:54:00,
2013-07-22 19:00:00,73.3,61.7,29.59,NW,305,8.0,19.0,67,0.00,,,0.00,VWS V14.01,2013-07-23 00:00:00,
2013-07-22 19:05:00,73.3,60.4,29.60,North,350,11.0,15.0,64,0.00,,,0.00,VWS V14.01,2013-07-23 00:05:00,
2013-07-22 19:11:00,73.2,61.2,29.60,NNW,341,7.0,15.0,66,0.00,,,0.00,VWS V14.01,2013-07-23 00:11:00,
2013-07-22 19:18:00,73.2,60.7,29.61,NNW,341,7.0,15.0,65,0.00,,,0.00,VWS V14.01,2013-07-23 00:18:00,
2013-07-22 19:25:00,72.8,62.0,29.61,NNW,347,7.0,15.0,69,0.00,,,0.00,VWS V14.01,2013-07-23 00:25:00,
2013-07-22 19:30:00,73.1,60.7,29.61,NNW,338,8.0,21.0,65,0.00,,,0.00,VWS V14.01,2013-07-23 00:30:00,
2013-07-22 19:33:00,72.7,61.1,29.61,North,354,11.0,11.0,67,0.00,,,0.00,VWS V14.01,2013-07-23 00:33:00,
2013-07-22 19:40:00,72.5,59.6,29.61,NNW,337,7.0,14.0,64,0.00,,,0.00,VWS V14.01,2013-07-23 00:40:00,
2013-07-22 19:46:00,72.3,59.5,29.61,North,354,7.0,14.0,64,0.00,,,0.00,VWS V14.01,2013-07-23 00:46:00,
2013-07-22 19:53:00,72.0,60.5,29.61,NNW,348,6.0,14.0,67,0.00,,,0.00,VWS V14.01,2013-07-23 00:53:00,
2013-07-22 20:00:00,72.0,59.2,29.61,NNW,329,5.0,14.0,64,0.00,,,0.00,VWS V14.01,2013-07-23 01:00:00,
2013-07-22 20:06:00,71.5,59.6,29.62,NNW,331,5.0,8.0,66,0.00,,,0.00,VWS V14.01,2013-07-23 01:06:00,
2013-07-22 20:12:00,71.1,59.2,29.62,NNW,338,5.0,9.0,66,0.00,,,0.00,VWS V14.01,2013-07-23 01:12:00,
2013-07-22 20:22:00,71.1,58.8,29.62,NNW,344,10.0,10.0,65,0.00,,,0.00,VWS V14.01,2013-07-23 01:22:00,
2013-07-22 20:27:00,71.1,58.3,29.62,NNW,336,4.0,10.0,64,0.00,,,0.00,VWS V14.01,2013-07-23 01:27:00,
2013-07-22 20:30:00,71.2,59.3,29.63,NNW,338,5.0,10.0,66,0.00,,,0.00,VWS V14.01,2013-07-23 01:30:00,
2013-07-22 20:34:00,70.9,58.6,29.63,NNW,344,6.0,6.0,65,0.00,,,0.00,VWS V14.01,2013-07-23 01:34:00,
2013-07-22 20:41:00,70.8,58.0,29.63,NNW,338,2.0,7.0,64,0.00,,,0.00,VWS V14.01,2013-07-23 01:41:00,
2013-07-22 20:46:00,70.6,59.1,29.64,NNW,338,1.0,7.0,67,0.00,,,0.00,VWS V14.01,2013-07-23 01:46:00,
2013-07-22 20:53:00,70.4,59.3,29.64,NNW,338,0.0,7.0,68,0.00,,,0.00,VWS V14.01,2013-07-23 01:53:00,
2013-07-22 20:59:00,70.3,59.7,29.64,NNW,338,0.0,7.0,69,0.00,,,0.00,VWS V14.01,2013-07-23 01:59:00,
2013-07-22 21:00:00,70.6,60.0,29.64,NNW,338,2.0,7.0,69,0.00,,,0.00,VWS V14.01,2013-07-23 02:00:00,
2013-07-22 21:05:00,70.1,58.7,29.64,NNW,338,5.0,7.0,67,0.00,,,0.00,VWS V14.01,2013-07-23 02:05:00,
2013-07-22 21:11:00,70.1,58.7,29.64,NNW,336,6.0,7.0,67,0.00,,,0.00,VWS V14.01,2013-07-23 02:11:00,
2013-07-22 21:17:00,70.1,57.8,29.64,North,354,5.0,10.0,65,0.00,,,0.00,VWS V14.01,2013-07-23 02:17:00,
2013-07-22 21:24:00,69.8,57.5,29.64,North,354,3.0,10.0,65,0.00,,,0.00,VWS V14.01,2013-07-23 02:24:00,
2013-07-22 21:30:00,70.1,59.5,29.65,NNW,338,4.0,11.0,69,0.00,,,0.00,VWS V14.01,2013-07-23 02:30:00,
2013-07-22 21:31:00,69.8,59.2,29.65,North,354,2.0,10.0,69,0.00,,,0.00,VWS V14.01,2013-07-23 02:31:00,
2013-07-22 21:38:00,68.6,58.0,29.65,NNW,348,4.0,5.0,69,0.00,,,0.00,VWS V14.01,2013-07-23 02:38:00,
2013-07-22 21:44:00,67.8,58.5,29.65,NNW,330,2.0,5.0,72,0.00,,,0.00,VWS V14.01,2013-07-23 02:44:00,
2013-07-22 21:52:00,67.3,58.7,29.66,NNW,330,0.0,5.0,74,0.00,,,0.00,VWS V14.01,2013-07-23 02:52:00,
2013-07-22 21:58:00,66.9,58.3,29.66,NNW,330,0.0,5.0,74,0.00,,,0.00,VWS V14.01,2013-07-23 02:58:00,
2013-07-22 22:00:00,67.9,59.3,29.66,NNW,338,1.0,6.0,74,0.00,,,0.00,VWS V14.01,2013-07-23 03:00:00,
2013-07-22 22:03:00,67.3,58.4,29.66,NNW,330,0.0,0.0,73,0.00,,,0.00,VWS V14.01,2013-07-23 03:03:00,
2013-07-22 22:11:00,67.3,58.0,29.66,NNW,330,0.0,0.0,72,0.00,,,0.00,VWS V14.01,2013-07-23 03:11:00,
2013-07-22 22:17:00,67.3,58.0,29.67,NNW,330,0.0,0.0,72,0.00,,,0.00,VWS V14.01,2013-07-23 03:17:00,
2013-07-22 22:30:00,67.1,57.8,29.67,NNW,330,0.0,0.0,72,0.00,,,0.00,VWS V14.01,2013-07-23 03:30:00,
2013-07-22 22:36:00,66.3,57.4,29.67,NNW,330,0.0,0.0,73,0.00,,,0.00,VWS V14.01,2013-07-23 03:36:00,
2013-07-22 22:42:00,66.0,57.5,29.67,NNW,330,0.0,0.0,74,0.00,,,0.00,VWS V14.01,2013-07-23 03:42:00,
2013-07-22 22:48:00,66.0,57.9,29.67,NNW,330,0.0,0.0,75,0.00,,,0.00,VWS V14.01,2013-07-23 03:48:00,
2013-07-22 22:55:00,66.0,57.5,29.67,NNW,330,0.0,0.0,74,0.00,,,0.00,VWS V14.01,2013-07-23 03:55:00,
2013-07-22 23:00:00,66.1,58.0,29.68,NNW,338,0.0,0.0,75,0.00,,,0.00,VWS V14.01,2013-07-23 04:00:00,
2013-07-22 23:01:00,66.0,57.9,29.68,NNW,330,0.0,0.0,75,0.00,,,0.00,VWS V14.01,2013-07-23 04:01:00,
2013-07-22 23:04:00,66.0,57.9,29.68,NNW,330,0.0,0.0,75,0.00,,,0.00,VWS V14.01,2013-07-23 04:04:00,
2013-07-22 23:07:00,66.0,58.2,29.68,NNW,330,0.0,0.0,76,0.00,,,0.00,VWS V14.01,2013-07-23 04:07:00,
2013-07-22 23:11:00,66.0,58.2,29.68,NNW,330,0.0,0.0,76,0.00,,,0.00,VWS V14.01,2013-07-23 04:11:00,
2013-07-22 23:16:00,65.8,58.4,29.68,NNW,330,0.0,0.0,77,0.00,,,0.00,VWS V14.01,2013-07-23 04:16:00,
2013-07-22 23:22:00,65.8,59.1,29.68,NNW,330,0.0,0.0,79,0.00,,,0.00,VWS V14.01,2013-07-23 04:22:00,
2013-07-22 23:28:00,65.5,58.5,29.68,NNW,330,0.0,0.0,78,0.00,,,0.00,VWS V14.01,2013-07-23 04:28:00,
2013-07-22 23:30:00,65.7,58.7,29.68,NNW,338,0.0,0.0,78,0.00,,,0.00,VWS V14.01,2013-07-23 04:30:00,
2013-07-22 23:39:00,64.8,58.1,29.68,NNW,330,0.0,0.0,79,0.00,,,0.00,VWS V14.01,2013-07-23 04:39:00,
2013-07-22 23:46:00,64.5,58.2,29.69,NNW,330,0.0,0.0,80,0.00,,,0.00,VWS V14.01,2013-07-23 04:46:00,
2013-07-22 23:51:00,64.2,58.6,29.69,NNW,330,0.0,0.0,82,0.00,,,0.00,VWS V14.01,2013-07-23 04:51:00,
2013-07-22 23:57:00,63.9,58.3,29.69,NNW,330,0.0,0.0,82,0.00,,,0.00,VWS V14.01,2013-07-23 04:57:00,